Weather in Lugovatka

Russia / Krasnoyarsk Krai     59°05′04″N   89°05′49″E
temp.,
°C
wind,
m/s
gust,
m/s
humid.,
%
clouds,
%
prec.,
mm/h
press.,
hPa
HPBL,
m
12 may, wed
wed1201:00+7e26905 0.0 1021132
04:00+5e24915 0.0 102170
07:00+8se23745 0.0 1021180
10:00+12se1258100 0.0 1020654
13:00+15s224826 0.0 10191230
16:00+15sw2247100 0.0 10171107
19:00+15ssw135191 0.0 1017578
22:00+11s2465100 0.0 101682
13 may, thu
thu1301:00+9ssw2670100 0.0 1016106
04:00+9sse3107085 0.1 1015271
07:00+10s4106449 0.1 1015306
10:00+14s475012 0.1 1014869
13:00+16s464537 0.2 10121544
16:00+11wnw2679100 0.8 1012287
19:00+12ssw347191 1.6 1011461
22:00+9s2594100 0.3 1012144
14 may, fri
fri1401:00+8nw3696100 1.2 1010372
04:00+7wnw3793100 2.6 1010367
07:00+7nw4108779 2.7 1012526
10:00+3nnw51096100 0.8 1014640
13:00+4nw5873100 0.8 10161136
16:00+9nw474291 0.0 10151847
19:00+9wnw474489 0.0 10161655
22:00+6w51059100 0.0 10161138
15 may, sat
sat1501:00+4sw41390100 0.7 1012736
04:00+6wsw51488100 3.8 1009865
07:00+8wnw61190100 3.9 10091144
10:00+7nnw5987100 0.4 1013948
13:00+6nw5770100 0.5 10161163
16:00+10nw474341 0.0 10161696
19:00+10wnw354624 0.0 10171440
22:00+5nw116777 0.0 101710
16 may, sun
sun1601:00+3ese2475100 0.0 101773
04:00+3ese2578100 0.0 1014128
07:00+5ese2574100 0.0 1014233
10:00+9ese345796 0.0 1012726
13:00+14ese224399 0.0 10111268
16:00+13nw3251100 0.0 10111453
19:00+7nnw1391100 1.1 1012145
22:00+6nnw2487100 0.0 1012149